Terminal Aerodrome Forecast
Issued by NWS

Home | Current Version | Previous Version | Text Only | Print | Product List | Glossary On
Versions: 1 2 3 4 5 6 7 8 9 10 11 12 13 14 15 16 17 18 19 20 21 22 23 24 25 26 27 28 29 30 31 32 33 34 35 36 37 38 39 40 41 42 43 44 45 46 47 48 49 50
000
FTUS41 KCTP 020532
TAFBFD
TAF
KBFD 020532Z 0206/0306 27006KT 6SM BR VCSH OVC007
     FM020800 27008KT P6SM VCSH OVC010
     FM021300 29010KT P6SM VCSH OVC020
     FM021800 30013G21KT P6SM BKN025
     FM022100 30012KT P6SM BKN050
     FM030200 31006KT P6SM BKN100=

USA.gov is the U.S. government's official web portal to all federal, state and local government web resources and services.